Hourly Weather Kista

Today, 29 July, Thursday

Time Temperature Precipitation Wind Pressure Humidity
00:00 +17°C° 0 mm 3 mps 749 mmHg 94%
01:00 +17°C° 0 mm 3 mps 749 mmHg 94%
02:00 +17°C° 0 mm 3 mps 749 mmHg 94%
03:00 +16°C° 0 mm 3 mps 748 mmHg 94%
04:00 +16°C° 0 mm 3 mps 748 mmHg 95%
05:00 +17°C° 0 mm 3 mps 748 mmHg 90%
06:00 +18°C° 0 mm 3 mps 748 mmHg 86%
07:00 +19°C° 0 mm 3 mps 748 mmHg 82%
08:00 +21°C° 0 mm 3 mps 748 mmHg 72%
09:00 +22°C° 0 mm 4 mps 747 mmHg 63%
10:00 +25°C° 0 mm 4 mps 747 mmHg 54%
11:00 +25°C° 0 mm 4 mps 746 mmHg 51%
12:00 +26°C° 0 mm 5 mps 746 mmHg 48%
13:00 +26°C° 0 mm 5 mps 745 mmHg 46%
14:00 +25°C° 0 mm 5 mps 745 mmHg 48%
15:00 +25°C° 0 mm 5 mps 745 mmHg 50%
16:00 +23°C° 0 mm 5 mps 745 mmHg 53%
17:00 +21°C° 0.1 mm 5 mps 745 mmHg 57%
18:00 +20°C° 0.1 mm 5 mps 745 mmHg 60%
19:00 +17°C° 0.1 mm 5 mps 744 mmHg 64%
20:00 +16°C° 0 mm 5 mps 744 mmHg 67%
21:00 +15°C° 0 mm 5 mps 744 mmHg 70%
22:00 +14°C° 0 mm 4 mps 744 mmHg 74%
23:00 +14°C° 0 mm 4 mps 744 mmHg 77%

Tomorrow, 30 July, Friday

Time Temperature Precipitation Wind Pressure Humidity
00:00 +13°C° 0 mm 4 mps 744 mmHg 80%
01:00 +13°C° 0 mm 4 mps 743 mmHg 83%
02:00 +13°C° 0 mm 4 mps 743 mmHg 85%
03:00 +12°C° 0 mm 3 mps 742 mmHg 87%
04:00 +12°C° 0 mm 3 mps 742 mmHg 89%
05:00 +13°C° 0.4 mm 3 mps 742 mmHg 88%
06:00 +13°C° 0.4 mm 3 mps 741 mmHg 87%
07:00 +14°C° 0.4 mm 3 mps 741 mmHg 85%
08:00 +14°C° 0.5 mm 3 mps 740 mmHg 85%
09:00 +15°C° 0.5 mm 2 mps 740 mmHg 84%
10:00 +16°C° 0.5 mm 2 mps 740 mmHg 84%
11:00 +17°C° 0.2 mm 2 mps 740 mmHg 78%
12:00 +18°C° 0.2 mm 3 mps 740 mmHg 72%
13:00 +19°C° 0.2 mm 3 mps 740 mmHg 66%
14:00 +20°C° 0.2 mm 3 mps 740 mmHg 63%
15:00 +20°C° 0.2 mm 4 mps 740 mmHg 60%
16:00 +21°C° 0.2 mm 4 mps 741 mmHg 57%
17:00 +21°C° 0 mm 3 mps 741 mmHg 59%
18:00 +20°C° 0 mm 2 mps 741 mmHg 60%
19:00 +20°C° 0 mm 2 mps 741 mmHg 61%
20:00 +19°C° 0 mm 2 mps 742 mmHg 67%
21:00 +17°C° 0 mm 2 mps 742 mmHg 72%
22:00 +16°C° 0 mm 2 mps 743 mmHg 77%
23:00 +16°C° 0 mm 2 mps 743 mmHg 81%

Day after tomorrow, 31 July, Saturday

Time Temperature Precipitation Wind Pressure Humidity
00:00 +15°C° 0 mm 2 mps 743 mmHg 85%
01:00 +15°C° 0 mm 2 mps 744 mmHg 89%
02:00 +15°C° 0 mm 2 mps 744 mmHg 91%
03:00 +15°C° 0 mm 2 mps 744 mmHg 93%
04:00 +13°C° 0 mm 3 mps 745 mmHg 96%
05:00 +16°C° 0 mm 3 mps 745 mmHg 90%
06:00 +17°C° 0 mm 3 mps 745 mmHg 85%
07:00 +18°C° 0 mm 3 mps 745 mmHg 80%
08:00 +18°C° 0.4 mm 3 mps 745 mmHg 80%
09:00 +18°C° 0.4 mm 3 mps 746 mmHg 81%
10:00 +18°C° 0.4 mm 3 mps 746 mmHg 82%
11:00 +19°C° 0.1 mm 3 mps 746 mmHg 78%
12:00 +19°C° 0.1 mm 3 mps 746 mmHg 73%
13:00 +20°C° 0.1 mm 3 mps 746 mmHg 69%
14:00 +20°C° 0.3 mm 3 mps 745 mmHg 70%
15:00 +20°C° 0.3 mm 4 mps 745 mmHg 72%
16:00 +21°C° 0.3 mm 4 mps 744 mmHg 73%
17:00 +20°C° 0.7 mm 4 mps 744 mmHg 78%
18:00 +19°C° 0.7 mm 3 mps 743 mmHg 82%
19:00 +18°C° 0.7 mm 3 mps 743 mmHg 87%
20:00 +17°C° 0.7 mm 3 mps 743 mmHg 89%
21:00 +17°C° 0.7 mm 3 mps 743 mmHg 91%
22:00 +16°C° 0.7 mm 3 mps 742 mmHg 94%
23:00 +16°C° 0.9 mm 3 mps 742 mmHg 94%

1 August, Sunday

Time Temperature Precipitation Wind Pressure Humidity
00:00 +16°C° 0.9 mm 3 mps 742 mmHg 95%
01:00 +14°C° 0.9 mm 3 mps 742 mmHg 96%
02:00 +14°C° 0.4 mm 3 mps 742 mmHg 95%
03:00 +14°C° 0.4 mm 4 mps 742 mmHg 95%
04:00 +14°C° 0.4 mm 4 mps 742 mmHg 95%
05:00 +14°C° 0 mm 4 mps 742 mmHg 93%
06:00 +14°C° 0 mm 4 mps 742 mmHg 92%
07:00 +15°C° 0 mm 4 mps 742 mmHg 90%
08:00 +15°C° 0.2 mm 4 mps 743 mmHg 90%
09:00 +15°C° 0.2 mm 4 mps 743 mmHg 90%
10:00 +15°C° 0.2 mm 4 mps 744 mmHg 89%
11:00 +15°C° 0.1 mm 4 mps 744 mmHg 86%
12:00 +16°C° 0.1 mm 3 mps 745 mmHg 83%
13:00 +16°C° 0.1 mm 3 mps 745 mmHg 79%
14:00 +16°C° 0.1 mm 3 mps 746 mmHg 73%
15:00 +17°C° 0.1 mm 4 mps 746 mmHg 66%
16:00 +18°C° 0.1 mm 4 mps 746 mmHg 60%
17:00 +17°C° 0 mm 3 mps 746 mmHg 59%
18:00 +17°C° 0 mm 3 mps 747 mmHg 58%
19:00 +17°C° 0 mm 3 mps 747 mmHg 58%
20:00 +14°C° 0 mm 3 mps 748 mmHg 63%
21:00 +13°C° 0 mm 3 mps 748 mmHg 68%
22:00 +13°C° 0 mm 2 mps 748 mmHg 73%
23:00 +12°C° 0 mm 2 mps 749 mmHg 75%

2 August, Monday

Time Temperature Precipitation Wind Pressure Humidity
00:00 +12°C° 0 mm 2 mps 749 mmHg 77%
01:00 +10°C° 0 mm 2 mps 749 mmHg 80%
02:00 +10°C° 0 mm 2 mps 750 mmHg 79%
03:00 +9°C° 0 mm 3 mps 750 mmHg 79%
04:00 +9°C° 0 mm 3 mps 751 mmHg 79%
05:00 +10°C° 0 mm 3 mps 751 mmHg 70%
06:00 +11°C° 0 mm 3 mps 751 mmHg 62%
07:00 +13°C° 0 mm 4 mps 751 mmHg 53%
08:00 +14°C° 0 mm 4 mps 751 mmHg 49%
09:00 +16°C° 0 mm 3 mps 752 mmHg 44%
10:00 +17°C° 0 mm 3 mps 752 mmHg 39%
11:00 +18°C° 0 mm 3 mps 752 mmHg 38%
12:00 +19°C° 0 mm 3 mps 752 mmHg 37%
13:00 +20°C° 0 mm 3 mps 752 mmHg 35%
14:00 +20°C° 0 mm 3 mps 752 mmHg 35%
15:00 +20°C° 0 mm 3 mps 752 mmHg 35%
16:00 +20°C° 0 mm 3 mps 752 mmHg 34%
17:00 +19°C° 0 mm 3 mps 752 mmHg 41%
18:00 +18°C° 0 mm 3 mps 752 mmHg 47%
19:00 +17°C° 0 mm 3 mps 752 mmHg 53%
20:00 +16°C° 0 mm 2 mps 752 mmHg 59%
21:00 +15°C° 0 mm 2 mps 752 mmHg 64%
22:00 +13°C° 0 mm 1 mps 752 mmHg 69%
23:00 +13°C° 0 mm 2 mps 752 mmHg 70%

3 August, Tuesday

Time Temperature Precipitation Wind Pressure Humidity
00:00 +13°C° 0 mm 2 mps 753 mmHg 72%
01:00 +12°C° 0 mm 2 mps 753 mmHg 73%
02:00 +13°C° 0 mm 2 mps 753 mmHg 73%
03:00 +13°C° 0 mm 2 mps 753 mmHg 72%
04:00 +13°C° 0 mm 1 mps 753 mmHg 72%
05:00 +14°C° 0 mm 1 mps 753 mmHg 69%
06:00 +15°C° 0 mm 2 mps 753 mmHg 66%
07:00 +16°C° 0 mm 2 mps 753 mmHg 63%
08:00 +18°C° 0 mm 1 mps 753 mmHg 58%
09:00 +19°C° 0 mm 1 mps 753 mmHg 54%
10:00 +20°C° 0 mm 1 mps 754 mmHg 50%
11:00 +20°C° 0 mm 1 mps 753 mmHg 48%
12:00 +20°C° 0 mm 2 mps 753 mmHg 47%
13:00 +20°C° 0 mm 2 mps 753 mmHg 45%
14:00 +20°C° 0 mm 2 mps 753 mmHg 49%
15:00 +20°C° 0 mm 3 mps 753 mmHg 53%
16:00 +19°C° 0 mm 3 mps 753 mmHg 57%
17:00 +19°C° 0.1 mm 3 mps 753 mmHg 60%
18:00 +18°C° 0.1 mm 3 mps 753 mmHg 64%
19:00 +17°C° 0.1 mm 3 mps 753 mmHg 68%
20:00 +17°C° 0.4 mm 3 mps 753 mmHg 74%
21:00 +16°C° 0.4 mm 2 mps 753 mmHg 80%
22:00 +15°C° 0.4 mm 2 mps 753 mmHg 86%
23:00 +15°C° 0.4 mm 2 mps 753 mmHg 88%
Show more